Location: Foligno
(42.9600°N, 12.7050°E)
Time: 11:18:34
(UTC+02:00)

ISS - Pass Details

Date: 14 May 2021
Orbit: 417 x 422 km, 51.6° (Epoch: 15 May)

Event Time Altitude Azimuth Distance (km) Brightness Sun altitude
Rises 04:27:57 0° 303° (WNW) 2,370 -0.1 -12.8°
Reaches altitude 10° 04:30:03 10° 304° (NW) 1,504 -1.1 -12.5°
Maximum altitude 04:33:26 84° 31° (NNE) 427 -3.7 -12.1°
Drops below altitude 10° 04:36:48 10° 122° (ESE) 1,498 -0.7 -11.6°
Sets 04:38:54 0° 123° (ESE) 2,360 0.3 -11.3°
